Location: Aulus
(42.7909°N, 1.3399°E)
Time: 20:47:04
(UTC+00:00)

Lacrosse 5 rocket - Pass Details

Date: 19 May 2025
Orbit: 419 x 515 km, 57.0° (Epoch: 18 June)

Event Time Altitude Azimuth Distance (km) Brightness Sun altitude
Rises 19:43:39 0° 321° (NW) 2,507 6.5 -5.3°
Reaches altitude 10° 19:46:29 10° 344° (NNW) 1,605 4.5 -5.8°
Maximum altitude 19:48:46 16° 23° (NNE) 1,270 3.3 -6.1°
Drops below altitude 10° 19:51:00 10° 63° (ENE) 1,565 3.4 -6.5°
Enters shadow 19:53:07 - 83° (E) 2,205 4.0 -6.8°
